GW1255 Weather Reports


time (UTC)temp
C
wind
direction
speed
KPH
gust
KPH
rain 1hr
cm
rain 24hr
cm
rain mn
cm
humidity
%
barometer
mb
20260506010903 8 70 4.8 14.5 0.00 0.00 0.00 81 1014.3
20260506010003 8 80 6.4 11.3 0.00 0.00 0.00 82 1014.4
20260506005403 8 78 9.7 16.1 0.00 0.00 0.00 82 1014.3
20260506004717 8 63 4.8 11.3 0.00 0.00 0.00 82 1014.3
20260506003604 8 71 6.4 12.9 0.00 0.00 0.00 82 1014.4
20260506002703 8 69 9.7 24.1 0.00 0.00 0.00 82 1014.4
20260506001803 8 66 9.7 24.1 0.00 0.00 0.00 82 1014.4
20260506001117 8 48 9.7 19.3 0.00 0.00 0.00 82 1014.5
20260506000004 8 51 8.0 14.5 0.00 0.00 0.00 82 1014.4
20260505235403 8 32 6.4 11.3 0.00 0.00 0.00 83 1014.3
20260505234503 8 34 6.4 9.7 0.00 0.00 0.00 83 1014.3
20260505233603 8 29 6.4 12.9 0.00 0.00 0.00 83 1014.3
20260505232918 8 29 8.0 12.9 0.00 0.00 0.00 82 1014.4
20260505231803 8 33 8.0 16.1 0.00 0.00 0.00 82 1014.5
20260505230903 8 26 8.0 12.9 0.00 0.00 0.00 82 1014.5
20260505230217 9 16 9.7 17.7 0.00 0.00 0.00 82 1014.5
20260505225403 8 14 9.7 12.9 0.00 0.00 0.00 81 1014.3
20260505224504 9 6 9.7 14.5 0.00 0.00 0.00 81 1014.5
20260505223818 8 360 9.7 14.5 0.00 0.00 0.00 81 1014.5
20260505222703 9 354 8.0 16.1 0.00 0.00 0.00 80 1014.5
20260505221803 9 353 9.7 14.5 0.00 0.00 0.00 80 1014.4
20260505220903 9 351 4.8 6.4 0.00 0.00 0.00 80 1014.5
20260505220003 9 348 6.4 14.5 0.00 0.00 0.00 80 1014.4
20260505215403 9 339 8.0 12.9 0.00 0.00 0.00 80 1014.5
20260505214718 9 343 9.7 16.1 0.00 0.00 0.00 79 1014.4
20260505213603 9 331 4.8 14.5 0.00 0.00 0.00 79 1014.3
20260505212703 9 345 9.7 14.5 0.00 0.00 0.00 78 1014.4
20260505212018 9 346 8.0 14.5 0.00 0.00 0.00 78 1014.3
20260505211118 9 1 9.7 14.5 0.00 0.00 0.00 78 1014.4
20260505210004 9 357 11.3 17.7 0.00 0.00 0.00 78 1014.3
20260505205618 9 353 11.3 17.7 0.00 0.00 0.00 78 1014.2
20260505204503 10 323 6.4 14.5 0.00 0.00 0.00 77 1014.3
20260505203817 10 353 8.0 12.9 0.00 0.00 0.00 77 1014.3
20260505202703 10 346 9.7 16.1 0.00 0.00 0.00 77 1014.4
20260505201803 10 346 11.3 17.7 0.00 0.00 0.00 76 1014.3
20260505201117 10 3 11.3 17.7 0.00 0.00 0.00 76 1014.2
20260505200003 10 335 9.7 14.5 0.00 0.00 0.00 76 1014.2
20260505195618 10 340 11.3 17.7 0.00 0.00 0.00 75 1014.1
20260505194503 10 349 11.3 17.7 0.00 0.00 0.00 74 1014.1
20260505193603 10 356 9.7 14.5 0.00 0.00 0.00 74 1014.0
20260505192918 10 349 11.3 20.9 0.00 0.00 0.00 74 1013.9
20260505191803 10 353 11.3 19.3 0.00 0.00 0.00 73 1013.9
20260505190903 10 356 12.9 20.9 0.00 0.00 0.00 73 1013.9
20260505190218 10 323 12.9 22.5 0.00 0.00 0.00 74 1013.9
20260505185403 10 335 14.5 22.5 0.00 0.00 0.00 74 1013.8
20260505184503 11 358 9.7 16.1 0.00 0.00 0.00 73 1013.8
20260505183603 11 329 11.3 20.9 0.00 0.00 0.00 72 1013.8
20260505182703 11 6 12.9 20.9 0.00 0.00 0.00 71 1013.7
20260505181803 11 349 9.7 17.7 0.00 0.00 0.00 70 1013.8
20260505180903 11 346 14.5 22.5 0.00 0.00 0.00 71 1013.8
20260505180003 11 331 12.9 20.9 0.00 0.00 0.00 71 1013.8
20260505175403 11 333 14.5 20.9 0.00 0.00 0.00 71 1013.8
20260505174503 11 327 12.9 20.9 0.00 0.00 0.00 69 1013.8
20260505173603 11 342 14.5 20.9 0.00 0.00 0.00 68 1013.9
20260505172703 11 340 14.5 20.9 0.00 0.00 0.00 69 1013.8
20260505171803 12 343 14.5 19.3 0.00 0.00 0.00 68 1013.9
20260505170903 12 340 12.9 19.3 0.00 0.00 0.00 67 1013.9
20260505170003 12 348 12.9 19.3 0.00 0.00 0.00 66 1014.0
20260505165403 12 332 12.9 19.3 0.00 0.00 0.00 64 1014.0
20260505164503 12 333 12.9 19.3 0.00 0.00 0.00 64 1013.9
20260505163603 12 340 12.9 20.9 0.00 0.00 0.00 64 1013.9
20260505162703 12 323 14.5 20.9 0.00 0.00 0.00 65 1013.9
20260505161803 12 348 12.9 17.7 0.00 0.00 0.00 65 1013.9
20260505160903 12 354 12.9 17.7 0.00 0.00 0.00 65 1013.9
20260505160217 12 332 12.9 17.7 0.00 0.00 0.00 66 1014.0
20260505152703 12 5 12.9 17.7 0.00 0.00 0.00 66 1014.1
20260505151803 12 331 12.9 17.7 0.00 0.00 0.00 67 1014.1
20260505150903 12 351 12.9 19.3 0.00 0.00 0.00 66 1014.2
20260505124503 12 11 14.5 27.4 0.00 0.00 0.00 62 1014.4
20260505123603 12 349 16.1 27.4 0.00 0.00 0.00 62 1014.4
20260505122917 13 348 14.5 22.5 0.00 0.00 0.00 62 1014.3
20260505121803 13 332 14.5 24.1 0.00 0.00 0.00 59 1014.3
20260505121118 12 341 16.1 22.5 0.00 0.00 0.00 58 1014.3
20260505120003 12 347 19.3 25.7 0.00 0.00 0.00 59 1014.3
20260505115403 12 355 17.7 29.0 0.00 0.00 0.00 60 1014.4
20260505114503 13 326 14.5 29.0 0.00 0.00 0.00 56 1014.2
20260505113818 12 350 17.7 29.0 0.00 0.00 0.00 60 1014.5
20260505112703 12 360 16.1 24.1 0.00 0.00 0.00 60 1014.4
20260505111803 12 344 16.1 25.7 0.00 0.00 0.00 61 1014.4
20260505110903 12 350 14.5 27.4 0.00 0.00 0.00 61 1014.4
20260505101803 12 350 17.7 27.4 0.00 0.00 0.00 64 1014.6
20260505101117 12 349 12.9 20.9 0.00 0.00 0.00 67 1014.6
20260505100004 12 344 14.5 22.5 0.00 0.00 0.00 68 1014.6
20260505095403 12 351 12.9 20.9 0.00 0.00 0.00 67 1014.7
20260505094503 12 5 11.3 17.7 0.00 0.00 0.00 67 1014.7
20260505093603 12 5 14.5 25.7 0.00 0.00 0.00 69 1014.8
20260505092918 11 352 12.9 20.9 0.00 0.00 0.00 68 1014.9
20260505091803 11 349 16.1 25.7 0.00 0.00 0.00 69 1014.9
20260505090903 11 344 17.7 27.4 0.00 0.00 0.00 69 1014.7
20260505090003 10 342 17.7 25.7 0.00 0.00 0.00 70 1014.6
20260505085403 10 351 17.7 25.7 0.00 0.00 0.00 72 1014.6
20260505084717 10 348 16.1 24.1 0.00 0.00 0.00 73 1014.7
20260505083603 10 335 16.1 25.7 0.00 0.00 0.00 73 1014.6
20260505082918 10 341 17.7 27.4 0.00 0.00 0.00 74 1014.7
20260505082017 9 331 16.1 22.5 0.00 0.00 0.00 74 1014.7
20260505080903 9 350 17.7 25.7 0.00 0.00 0.00 77 1014.8
20260505080004 9 338 14.5 19.3 0.00 0.00 0.00 78 1015.0
20260505075618 9 339 14.5 19.3 0.00 0.00 0.00 80 1015.1
20260505074503 9 11 12.9 19.3 0.00 0.00 0.00 81 1015.0
20260505073603 8 14 11.3 19.3 0.00 0.00 0.00 81 1015.0
20260505072703 8 354 9.7 16.1 0.00 0.00 0.00 82 1015.0
20260505071803 8 1 8.0 12.9 0.00 0.00 0.00 84 1015.2
20260505070903 8 359 9.7 17.7 0.00 0.00 0.00 84 1015.2
20260505070003 8 349 9.7 17.7 0.00 0.00 0.00 85 1015.0
20260505065403 8 357 8.0 14.5 0.00 0.00 0.00 85 1015.3
20260505064503 8 333 4.8 8.0 0.00 0.00 0.00 86 1015.2
20260505063818 8 333 8.0 11.3 0.00 0.00 0.00 86 1015.3
20260505062703 8 323 8.0 9.7 0.00 0.00 0.00 87 1015.2
20260505061803 8 353 6.4 9.7 0.00 0.00 0.00 87 1015.2
20260505060903 8 329 6.4 9.7 0.00 0.00 0.00 87 1015.1
20260505060003 8 325 6.4 9.7 0.00 0.00 0.00 87 1015.3
20260505055403 8 322 6.4 11.3 0.00 0.00 0.00 87 1015.3
20260505054504 8 330 8.0 11.3 0.00 0.00 0.00 87 1015.2
20260505053603 7 335 6.4 11.3 0.00 0.00 0.00 87 1015.2
20260505052917 7 345 4.8 11.3 0.00 0.00 0.00 88 1015.1
20260505051803 7 332 6.4 8.0 0.00 0.00 0.00 89 1015.2
20260505050903 7 312 6.4 9.7 0.00 0.00 0.00 89 1015.3
20260505040903 7 328 3.2 6.4 0.00 0.00 0.00 89 1014.9
20260505040004 7 357 4.8 9.7 0.00 0.00 0.00 89 1014.7
20260505035403 8 5 3.2 4.8 0.00 0.00 0.00 89 1014.7
20260505034503 8 354 4.8 8.0 0.00 0.00 0.00 90 1014.8
20260505033603 8 354 3.2 8.0 0.00 0.00 0.00 90 1014.8
20260505032703 8 343 6.4 9.7 0.00 0.00 0.00 90 1015.0
20260505032017 8 346 6.4 9.7 0.00 0.00 0.00 90 1015.1
20260505030903 8 354 6.4 9.7 0.00 0.00 0.00 91 1015.0
20260505030218 7 357 4.8 9.7 0.00 0.00 0.00 92 1015.0
20260505025403 7 2 6.4 11.3 0.00 0.00 0.00 92 1015.1
20260505024717 7 5 4.8 8.0 0.00 0.00 0.00 92 1015.1
20260505023603 7 334 3.2 4.8 0.00 0.00 0.00 92 1015.2
20260505022918 7 321 4.8 8.0 0.00 0.00 0.00 92 1015.0
20260505021803 7 315 4.8 6.4 0.00 0.00 0.00 91 1015.2
20260505020903 7 313 3.2 6.4 0.00 0.00 0.00 91 1015.1
20260505020003 7 316 4.8 6.4 0.00 0.00 0.00 91 1015.2
20260505015403 7 324 3.2 6.4 0.00 0.00 0.00 90 1015.1
20260505014503 8 334 1.6 4.8 0.00 0.00 0.00 90 1015.2
20260505013603 8 333 3.2 8.0 0.00 0.00 0.00 90 1015.3
20260505012703 8 16 3.2 8.0 0.00 0.00 0.00 89 1015.5
20260505011803 8 8 3.2 6.4 0.00 0.00 0.00 89 1015.4